Location: Izdebno
(52.6670°N, 16.2170°E)
Time: 17:56:39
(UTC+02:00)

Transit 4A - Pass Details

Date: 02 March 2024
Orbit: 871 x 972 km, 66.8° (Epoch: 21 April)

Event Time Altitude Azimuth Distance (km) Brightness Sun altitude
Rises 22:53:26 0° 177° (S) 3,595 - -41.7°
Reaches altitude 10° 22:56:21 10° 166° (SSE) 2,638 - -41.9°
Maximum altitude 23:01:22 27° 111° (ESE) 1,679 - -42.1°
Drops below altitude 10° 23:06:19 10° 55° (NE) 2,594 - -42.4°
Exits shadow 23:08:17 - 47° (NE) 3,229 10.9 -42.5°
Sets 23:09:09 0° 44° (NE) 3,524 11.2 -42.6°
